Погода в Кургане

Погода в Кургане : погода сейчас, прогноз погоды и архив. Всё, что Вы хотите узнать о погоде в Кургане!

Хотите узнать прогноз погоды в Кургане? Тогда Вам сюда: Погода в Кургане

Поиск расширенной информации на нашем сайте:

Другие новости

Новости СМИ2

Главная страница сайта

Новости сайта

02.10.2013

Напоминаем, что на нашем новом сайте вы можете получить высокодетализированные прогнозы погоды по пунктам России, СНГ и мира (включающие важные для авиации метеовеличины, такие как направление и скорость ветра, видимость, явления погоды, количество и форма облачности, нижняя и верхняя граница облачности), а также ознакомиться с разнообразными материалами по авиационной метеорологии и подборкой полезных ссылок на эту тему.

Сайт Метеоцентр.Азия посвящён разработке технологий оптимизации авиаметеорологического обслуживания, включая проектирование и перспективное создание нескольких автоматизированных авиаметеорологических систем:
- система выпуска высокодетальных прогностических карт явлений погоды для нижнего воздушного пространства по России и ближнему зарубежью;
- система верификации прогнозов TAF (выпускаемых синоптиками официальных АМСГ РФ и ближнего зарубежья) и AUTOTAF (выпускаемых сайтом Метеоцентр.Азия) - выявление ошибок, онлайн-сопоставление с фактической погодой METAR, автоматическое внесение коррективов в прогнозы при резком отклонении фактической погоды от прогноза, подсчёт оправдываемости прогнозов по элементам и в целом;
- система обработки, анализа и отображения авиаметеорологической информации для применения провайдерами метеорологической информации.

Рекомендуем: Магазины yves rocher

Погода в Кургане - сегодня

Время (UTC), дата Ветер
(°,м/с) 
Видим.   Явления Облачность Т
(°С)
Тd
(°С)
f(%) Тe
(°С)
Pmin
(гПа)
dP
(гПа)
Po
(мм)
O2
(г/м3)
Тmin Tmax R s Состояние
почвы
06 27.04.16 320 (СЗ) 20000 м    10/8 600 м кучево-дожд., средняя, верхняя 
[Cb cap|Ac trans|Ci fib]
+6.8 +0.6 65 +6  1023.7  0.2  761  299           
09 27.04.16 320 (СЗ) 20000 м  в посл. час ливневой дождь  10/8 600 м кучево-дожд., средняя 
[Cb cap|Ac und]
+7.8 +0.6 60 +7  1023.8  0.1  761  298           
12 27.04.16 350 (С) 20000 м  в посл. час ливневой дождь  10/8 600 м кучево-дожд., верхняя 
[Cb cap|Ci fib]
+8.6 +2.1 64 +8  1023.5  -0.3  761  297           
15 27.04.16 320 (СЗ) 20000 м  {ливн. осадки}  10/8 1000 м верхняя 
[Sc|Ci fib]
+6.7 +2.3 73 +7  1023.8  0.2  761  299    +8.7  0.0     
18 27.04.16 350 (С) 10 км  {ливн. осадки}  10/0 средняя 
[Ac und]
+5.3 +1.3 75 +4  1024  0.2  761  301           
21 27.04.16 320 (СЗ) 10 км    3/0 верхняя 
[Ci fib]
+2.5 -0.2 82 +2  1023.3  -0.8  761  304           
00 28.04.16 320 (СЗ) 10 км    10/10 600 м 
[Sc]
+3.3 +1.2 86 +4  1022.9  -0.4  760  302           
03 28.04.16 320 (СЗ) 10 км  слаб. ливневой дождь  10/6 600 м кучево-дожд., средняя 
[Cb cap|Ac und]
+3.6 +2 89 +3  1022.8  760  302  +1.7    0.6    влажная 
06 28.04.16 010 (С) 10 км  слаб. ливневой дождь  10/8 600 м кучево-дожд., средняя 
[Cb cap|Ac und]
+4.7 +2.7 87 +6  1023.3  0.6  761  301           
09 28.04.16 360 (С) 20000 м  {ливн. осадки}  8/6 1000 м кучево-дожд., верхняя 
[Cb cap|Ci]
+10.2 +2.2 58 +10  1022.7  -0.4  760  295           
12 28.04.16 340 (С) 20000 м  {ливн. осадки}  10/8 1000 м кучево-дожд., средняя 
[Cb cap|Ac und]
+7.4 +2.2 70 +7  1024.6  1.7  762  298           
15 28.04.16 350 (С) 2{11}  10 км    8/8 1000 м кучево-дожд. 
[Cb cap]
+6.8 +2.3 73 +7  1025.1  0.5  762  299    +10.2     
18 28.04.16 360 (С) 10 км    4/4 1000 м кучево-дожд. 
[Cb cap]
+3.2 +0.8 84 +4  1026.5  1.2  763  304           
21 28.04.16 340 (С) 10 км    ясно 
+3.6 +1 83 +2  1027.7  1.2  764  304           
00 29.04.16 350 (С) 10 км    ясно 
+0.7 -0.4 92 1029  1.2  765  307           
03 29.04.16 360 (С) 20000 м    1/1 1000 м 
[Cu hum]
+5.5 +2.5 81 +4  1030.1  1.2  766  302  +0.4        влажная 
06 29.04.16 020 (С) 20000 м    3/3 600 м 
[Cu hum]
+10.3 +2.6 59 +10  1031.3  1.4  767  297           
09 29.04.16 040 (СВ) 20000 м    3/3 600 м 
[Cu hum]
+12.8 -4 31 +12  1031.1  -0.2  767  295           
12 29.04.16 350 (С) 20000 м    3/3 600 м 
[Cu hum]
+13.2 -3.3 32 +14  1030.7  -0.4  766  295           
15 29.04.16 350 (С) 20000 м    ясно 
+9.8 -1.7 45 +11  1030.5  -0.3  766  298    +13.5       
18 29.04.16 150 (ЮВ) 10 км    ясно 
+4.5 +1.9 83 +5  1031  0.4  766  303           
21 29.04.16 тихо ()   10 км    ясно 
+2.2 +1 92 +2  1031.5  0.4  767  306           
00 30.04.16 тихо ()   10 км    ясно 
+1.7 +0.8 94 +2  1031.5  767  307           
03 30.04.16 230 (ЮЗ) 20000 м    ясно 
+8.7 -2.6 45 +10  1031.2  0.1  767  300  +0.9        влажная 
06 30.04.16 270 (З) 20000 м    ясно 
+13.6 -5.3 26 +14  1030.2  -0.8  766  295           
Время (UTC), дата Ветер
(°,м/с) 
Видим.   Явления Облачность Т
(°С)
Тd
(°С)
f(%) Тe
(°С)
Pmin
(гПа)
dP
(гПа)
Po
(мм)
O2
(г/м3)
Тmin Tmax R s Состояние
почвы

Для получения пояснительной информации подведите курсор к названию столбца.

ПОГОДА в Кургане - архив

Всё, что Вы хотите узнать о погоде в Кургане - удобно и подробно!

Выберите нужную дату (начиная с 1 января 2015* года) и нажмите кнопку "Найти".
Будут отображены архивные сводки погоды по пункту Курган, начиная с указанной даты.


Отображать данные в формате CSV (для использования в таблицах Excel)


Внимание! Наш архив погоды предназначен исключительно для личного некоммерческого использования в познавательных целях. Если Вам необходимы официальные справки о состоянии погоды (для производственных, юридических, коммерческих и т.п. целей), обращайтесь в органы Росгидромета.

*Примечание: данная дата относится к архиву по метеостанциям СССР (Россия, СНГ, Балтия).
Архив по метеостанциям Зарубежной Европы и Азии (кроме Китая) хранится 10 дней, по другим регионам земного шара (Китай, Африка, Америка, Австралия, Океания) - 1 день.

Курган - район местоположения метеостанции


Название, широта, долгота, высота метеостанции:
Курган 55.5°ш. 65.4°д. 74 м над ур. моря [Российская Федерация]

Дополнительная информация

В oтличие oт бoльшинства пoгoдных сайтoв мы публикуем пoдрoбную метеoинфoрмацию в детальнoм прoфессиoнальнoм фoрмате.

Характеристики температуры и влажнoсти вoздуха измеряются на высoте 2 м в тени вдали oт зданий и деревьев.
Скoрoсть ветра измеряется на высoте 10 м (на урoвне рoста челoвека скoрoсть ветра ниже в 1.5-2 раза). Если метеoстанция нахoдится в гoрoде или в лесу, тo скoрoсть ветра занижена на 2-4 м/с пo сравнению с oткрытым местoм. Скoрoсть ветра над акватoриями крупных рек и oзёр, а также на вершинах хoлмoв на 2-5 м/с выше, чем в oбычных услoвиях.
Атмoсфернoе давление в разных тoчках местнoсти мoжет значительнo oтличаться oт давления на метеoстанции, в зависимoсти oт услoвий рельефа (при пoдъёме на 10 м давление пoнижается примернo на 1 мм рт.ст.).